Regional Weather Roundup
Issued by NWS

Home | Current Version | Previous Version | Text Only | Print | Product List | Glossary On
Versions: 1 2 3 4 5 6 7 8 9 10 11 12 13 14 15 16 17 18 19 20 21 22 23 24 25 26 27 28 29 30 31 32 33 34 35 36 37 38 39 40 41 42 43 44 45 46 47 48 49 50
668
ASUS43 KTOP 230659
RWRKS

WEATHER ROUNDUP FOR KANSAS
NATIONAL WEATHER SERVICE GOODLAND KS
200 AM CDT WED AUG 23 2017

NOTE:  "FAIR" INDICATES FEW OR NO CLOUDS BELOW 12,000 FEET WITH NO
SIGNIFICANT WEATHER AND/OR OBSTRUCTIONS TO VISIBILITY.

KSZ001>006-013>018-027>032-041>047-230800-
NORTHWEST KANSAS

CITY           SKY/WX    TMP DP  RH WIND       PRES   REMARKS
GOODLAND       CLEAR     57  49  74 S10       30.22F
HAYS           CLEAR     56  51  84 CALM      30.21F
HILL CITY      CLEAR     57  52  83 E6        30.21F
RUSSELL        CLEAR     60  50  69 E7        30.19F
$$

KSZ061>065-074>080-084>089-230800-
SOUTHWEST KANSAS

CITY           SKY/WX    TMP DP  RH WIND       PRES   REMARKS
DODGE CITY       N/A    N/A N/A N/A MISG      30.20F
ELKHART          N/A     61  59  94 SE7         N/A
GARDEN CITY    CLEAR     60  52  74 E8        30.21S
GREAT BEND     CLEAR     62  51  67 NE7       30.20F
LIBERAL        PTCLDY    67  56  67 MISG        N/A
$$

KSZ066>073-081>083-090>101-230800-
SOUTHEAST KANSAS

CITY           SKY/WX    TMP DP  RH WIND       PRES   REMARKS
CHANUTE        CLEAR     64  57  78 N7        30.15S
COFFEYVILLE    PTCLDY    66  61  84 NE7       30.11F
HUTCHINSON     CLEAR     62  51  67 NE5       30.17R
MEDICINE LODGE   N/A     64  51  62 NE8       30.16S
NEWTON         CLEAR     61  53  75 E7        30.18S
PARSONS        PTCLDY    66  58  75 N6        30.14F
WICHITA INTL   PTCLDY    66  58  75 NE9       30.16S
WICHITA JABRA  CLEAR     61  59  93 NE5       30.17S
WINFIELD       CLEAR     67  59  75 NE7       30.15S
$$

KSZ007>012-019>026-033>040-048>060-102>105-230800-
NORTHEAST KANSAS

CITY           SKY/WX    TMP DP  RH WIND       PRES   REMARKS
CONCORDIA      CLEAR     59  53  80 CALM      30.19F
EMPORIA        CLEAR     59  54  83 CALM      30.17R
LAWRENCE       CLEAR     58  56  93 CALM      30.16S
MANHATTAN      CLEAR     55  54  96 CALM      30.17F
OLATHE IND     CLEAR     56  54  93 N6        30.16F
OLATHE EXE     CLEAR     62  54  74 N3        30.16S
SALINA         CLEAR     66  51  58 NE3       30.18F
TOPEKA BILLARD CLEAR     58  57  97 CALM      30.16F
TOPEKA FORBES  CLEAR     59  55  87 CALM      30.16F
$$




USA.gov is the U.S. government's official web portal to all federal, state and local government web resources and services.